Change the Weather History Date:

Tuesday, July 30, 2013

  Actual Average Record
Temperature  
Mean Temperature 66 °F 69 °F  
Max Temperature 78 °F 81 °F 90 °F (1999)
Min Temperature 53 °F 57 °F 44 °F (1997)
Degree Days  
Heating Degree Days 0 1  
Month to date heating degree days 16  
Since 1 June heating degree days 112  
Since 1 July heating degree days 16  
Cooling Degree Days 1 4  
Month to date cooling degree days 251 139  
Year to date cooling degree days 364 215  
Since 1 June cooling degree days 340 203  
Growing Degree Days 16 (Base 50)    
Moisture  
Dew Point 54 °F    
Average Humidity 70    
Maximum Humidity 100    
Minimum Humidity 40    
Precipitation  
Precipitation 0.00 in 0.14 in 0.09 in (2012)
Month to date precipitation 5.10 4.28  
Year to date precipitation 23.21 24.44  
Sea Level Pressure  
Sea Level Pressure 30.11 in    
Wind  
Wind Speed 4 mph (WNW)    
Max Wind Speed 14 mph    
Max Gust Speed 21 mph    
Visibility 10 miles    
Events      
T = Trace of Precipitation, MM = Missing Value Source: NWS Daily Summary

Daily Weather History Graph

Daily Weather History Graph

Search for Another Location

Airport or City:

Trip Planner

Search our weather history database for the weather conditions in past years. The results will help you decide how hot, cold, wet, or windy it might be!

Date:

Astronomy

Jul. 30, 2013 Rise Set
Actual Time 5:38 AM EDT 8:14 PM EDT
Civil Twilight 5:05 AM EDT 8:46 PM EDT
Nautical Twilight 4:24 AM EDT 9:27 PM EDT
Astronomical Twilight 3:37 AM EDT 10:13 PM EDT
Moon No Moon Rise 2:30 PM EDT (7/30)
Length of Visible Light 15h 41m
Length of Day
14h 36m
Last Quarter, 41% of the Moon is Illuminated
Jul 30
Last Quarter
Aug 6
New
Aug 14
First Quarter
Aug 20
Full
Aug 28
Last Quarter

Hourly Weather History & Observations

Time (EDT) Temp. Dew Point Humidity Pressure Visibility Wind Dir Wind Speed Gust Speed Precip Events Conditions
12:54 AM 59.0 °F 57.0 °F 93% 30.09 in 10.0 mi Calm Calm - N/A   Clear
1:54 AM 57.9 °F 55.9 °F 93% 30.09 in 10.0 mi NNW 3.5 mph - N/A   Scattered Clouds
2:54 AM 55.9 °F 55.0 °F 97% 30.09 in 9.0 mi Calm Calm - N/A   Clear
3:54 AM 55.0 °F 54.0 °F 96% 30.09 in 10.0 mi Calm Calm - N/A   Clear
4:54 AM 54.0 °F 53.1 °F 97% 30.11 in 10.0 mi Calm Calm - 0.01 in   Partly Cloudy
5:54 AM 54.0 °F 53.1 °F 97% 30.12 in 9.0 mi Calm Calm - N/A   Scattered Clouds
6:54 AM 55.0 °F 54.0 °F 96% 30.13 in 10.0 mi Calm Calm - N/A   Partly Cloudy
7:54 AM 60.1 °F 57.0 °F 90% 30.13 in 10.0 mi Calm Calm - N/A   Clear
8:54 AM 66.9 °F 53.1 °F 61% 30.14 in 10.0 mi West 9.2 mph - N/A   Clear
9:54 AM 69.1 °F 54.0 °F 58% 30.13 in 10.0 mi Variable 3.5 mph - N/A   Partly Cloudy
10:54 AM 73.0 °F 54.0 °F 51% 30.13 in 10.0 mi West 9.2 mph 18.4 mph N/A   Clear
11:54 AM 75.0 °F 52.0 °F 44% 30.12 in 10.0 mi West 10.4 mph 16.1 mph N/A   Partly Cloudy
12:54 PM 73.0 °F 51.1 °F 46% 30.12 in 10.0 mi NW 9.2 mph - N/A   Mostly Cloudy
1:54 PM 75.9 °F 51.1 °F 42% 30.11 in 10.0 mi West 10.4 mph 18.4 mph N/A   Partly Cloudy
2:54 PM 75.0 °F 50.0 °F 41% 30.10 in 10.0 mi NNW 6.9 mph - N/A   Partly Cloudy
3:54 PM 78.1 °F 53.1 °F 42% 30.07 in 10.0 mi WNW 8.1 mph - N/A   Scattered Clouds
4:54 PM 77.0 °F 51.1 °F 40% 30.07 in 10.0 mi Variable 6.9 mph - N/A   Clear
5:54 PM 75.9 °F 53.1 °F 45% 30.07 in 10.0 mi West 11.5 mph 16.1 mph N/A   Clear
6:54 PM 75.0 °F 53.1 °F 46% 30.09 in 10.0 mi West 6.9 mph - N/A   Clear
7:54 PM 68.0 °F 57.0 °F 68% 30.09 in 10.0 mi Calm Calm - N/A   Mostly Cloudy
8:54 PM 64.9 °F 57.9 °F 78% 30.12 in 10.0 mi Calm Calm - N/A   Mostly Cloudy
9:54 PM 64.0 °F 59.0 °F 84% 30.12 in 10.0 mi Calm Calm - N/A   Overcast
10:54 PM 62.1 °F 57.9 °F 86% 30.12 in 10.0 mi Calm Calm - N/A   Mostly Cloudy
11:54 PM 59.0 °F 57.0 °F 93% 30.12 in 10.0 mi Calm Calm - N/A   Partly Cloudy